Flag for Algeria Weather past 2 weeks in Oran, Algeria

Now
81 °F

Partly sunny.


Feels Like: 85 °F
Forecast: 73 / 84 °F
Wind: 7 mph from West

Location: Oran / Es Senia

Current Time: Jul 2, 2015 at 11:46:25 AM

Latest Report: Jul 2, 2015 at 11:00 AM


Visibility: N/A

Pressure: 30.07 "Hg

Humidity: 74%

Dew point: 72 °F

Location of OranLocation

Historic Weather in Oran — Graph

°F

Oran temperature yesterday

Maximum temperature yesterday: 90 °F (at 12:00 PM)
Minimum temperature yesterday: 73 °F (at 2:30 AM)
Average temperature yesterday: 80 °F

Past Weeks' High & Low Weather Summary

 TemperatureHumidityPressure
High97 °F (Jun 29, 12:00 PM)100% (Jun 27, 6:30 AM)30.15 "Hg (Jun 27, 6:30 AM)
Low61 °F (Jun 20, 2:30 AM)18% (Jun 23, 4:00 PM)29.89 "Hg (Jun 30, 5:00 PM)
Average77 °F65%30.02 "Hg
* Reported Jun 17 10:00 AM — Jul 2 10:30 AM, Oran, Weather by CustomWeather, © 2015

Note: Actual official high and low records may vary slightly from our data, if they occured in-between our weather recording intervals... More about our weather records

Advertising

Oran weather history for previous 24 hours

 ConditionsComfort  
Time TempWeatherWind HumidityBarometerVisibility
10:30 AM
Thu, Jul 2
81 °FPartly sunny.9 mph79%30.07 "HgN/A
10:00 AM81 °FPartly sunny.8 mph79%30.04 "HgN/A
9:30 AM79 °FPartly sunny.8 mph74%30.04 "HgN/A
9:00 AM79 °FPartly sunny.12 mph79%30.04 "HgN/A
8:30 AM79 °FPartly sunny.12 mph79%30.04 "HgN/A
8:00 AM77 °FPartly sunny.12 mph83%30.01 "HgN/A
7:30 AM77 °FBroken clouds.9 mph83%30.01 "HgN/A
7:00 AM77 °FBroken clouds.9 mph83%30.01 "HgN/A
6:30 AM75 °FBroken clouds.14 mph89%30.01 "HgN/A
6:00 AM75 °FBroken clouds.14 mph89%30.01 "HgN/A
5:00 AM77 °FPartly cloudy.14 mph83%30.01 "HgN/A
4:30 AM77 °FPartly cloudy.12 mph83%30.01 "HgN/A
4:00 AM77 °FPartly cloudy.12 mph83%30.01 "HgN/A
3:30 AM77 °FPartly cloudy.12 mph83%29.98 "HgN/A
3:00 AM77 °FPartly cloudy.14 mph83%30.01 "HgN/A
2:30 AM77 °FPassing clouds.15 mph83%30.01 "HgN/A
2:00 AM77 °FPassing clouds.14 mph83%30.01 "HgN/A
1:30 AM77 °FPassing clouds.14 mph83%30.01 "HgN/A
1:00 AM77 °FPassing clouds.12 mph83%30.01 "HgN/A
12:30 AM77 °FPassing clouds.12 mph83%29.98 "HgN/A
12:00 AM77 °FPassing clouds.16 mph83%29.98 "HgN/A
11:30 PM
Wed, Jul 1
77 °FPartly cloudy.16 mph83%29.98 "HgN/A
10:30 PM79 °FPartly cloudy.9 mph79%29.98 "HgN/A
10:00 PM79 °FPartly cloudy.No wind79%29.95 "HgN/A
9:30 PM79 °FPassing clouds.5 mph84%29.95 "HgN/A
9:00 PM79 °FPassing clouds.5 mph84%29.98 "HgN/A
8:30 PM79 °FPassing clouds.14 mph84%29.95 "HgN/A
8:00 PM81 °FScattered clouds.14 mph79%29.92 "HgN/A
7:30 PM82 °FScattered clouds.7 mph70%29.92 "HgN/A
7:00 PM84 °FScattered clouds.7 mph66%29.92 "HgN/A
6:30 PM84 °FScattered clouds.7 mph70%29.89 "HgN/A
6:00 PM84 °FScattered clouds.12 mph70%29.89 "HgN/A
5:30 PM84 °FScattered clouds.12 mph66%29.89 "HgN/A
5:00 PM84 °FScattered clouds.12 mph66%29.89 "HgN/A
4:30 PM84 °FScattered clouds.12 mph66%29.89 "HgN/A
4:00 PM84 °FScattered clouds.14 mph66%29.89 "HgN/A
3:30 PM86 °FScattered clouds.14 mph62%29.92 "HgN/A
3:00 PM86 °FScattered clouds.14 mph62%29.92 "HgN/A
2:30 PM88 °FScattered clouds.14 mph59%29.92 "HgN/A
2:00 PM88 °FScattered clouds.9 mph59%29.92 "HgN/A
1:30 PM90 °FScattered clouds.12 mph55%29.92 "HgN/A
1:00 PM90 °FScattered clouds.5 mph55%29.92 "HgN/A
12:30 PM90 °FScattered clouds.12 mph52%29.92 "HgN/A
12:00 PM90 °FScattered clouds.12 mph52%29.92 "HgN/A
11:30 AM88 °FScattered clouds.13 mph55%29.95 "HgN/A
11:00 AM86 °FScattered clouds.14 mph59%29.95 "HgN/A
Weather by CustomWeather, © 2015

See weather overviewHow to use our weather pages